Time,TemperatureF,DewpointF,PressureIn,WindDirection,WindDirectionDegrees,WindSpeedMPH,WindSpeedGustMPH,Humidity,HourlyPrecipIn,Conditions,Clouds,dailyrainin,SoftwareType,DateUTC
2013-06-04 00:00:00,54.3,46.0,30.33,WNW,289,0.0,0.0,75,0.00,,,-99.99,wx200d/1.3,2013-06-04 07:00:00,
2013-06-04 00:15:00,54.7,48.0,30.33,NNW,328,0.0,0.0,74,0.00,,,-99.99,wx200d/1.3,2013-06-04 07:15:00,
2013-06-04 00:30:00,55.0,48.0,30.33,West,273,0.0,0.0,74,0.00,,,-99.99,wx200d/1.3,2013-06-04 07:30:00,
2013-06-04 00:45:00,55.0,46.0,30.33,West,277,0.0,0.0,71,0.00,,,-99.99,wx200d/1.3,2013-06-04 07:45:00,
2013-06-04 01:00:00,55.0,45.0,30.33,West,276,0.0,0.0,69,0.00,,,-99.99,wx200d/1.3,2013-06-04 08:00:00,
2013-06-04 01:15:00,55.0,45.0,30.33,WNW,286,0.0,0.0,68,0.00,,,-99.99,wx200d/1.3,2013-06-04 08:15:00,
2013-06-04 01:30:00,55.0,45.0,30.33,West,275,0.0,0.0,68,0.00,,,-99.99,wx200d/1.3,2013-06-04 08:30:00,
2013-06-04 01:45:00,54.9,45.0,30.30,West,266,0.0,0.0,68,0.00,,,-99.99,wx200d/1.3,2013-06-04 08:45:00,
2013-06-04 02:00:00,55.0,45.0,30.33,West,273,0.0,0.0,68,0.00,,,-99.99,wx200d/1.3,2013-06-04 09:00:00,
2013-06-04 02:15:00,55.0,45.0,30.33,West,269,0.0,0.0,68,0.00,,,-99.99,wx200d/1.3,2013-06-04 09:15:00,
2013-06-04 02:30:00,55.2,45.0,30.33,WSW,257,0.0,0.0,68,0.00,,,-99.99,wx200d/1.3,2013-06-04 09:30:00,
2013-06-04 02:45:00,55.2,45.0,30.33,West,270,0.0,0.0,67,0.00,,,-99.99,wx200d/1.3,2013-06-04 09:45:00,
2013-06-04 03:00:00,55.2,45.0,30.33,West,266,0.0,0.0,67,0.00,,,-99.99,wx200d/1.3,2013-06-04 10:00:00,
2013-06-04 03:15:00,55.2,45.0,30.30,West,270,0.0,0.0,66,0.00,,,-99.99,wx200d/1.3,2013-06-04 10:15:00,
2013-06-04 03:30:00,55.2,45.0,30.30,West,259,0.0,0.0,66,0.00,,,-99.99,wx200d/1.3,2013-06-04 10:30:00,
2013-06-04 03:45:00,55.2,45.0,30.30,West,261,0.0,0.0,66,0.00,,,-99.99,wx200d/1.3,2013-06-04 10:45:00,
2013-06-04 04:00:00,55.2,45.0,30.33,West,276,0.0,0.0,65,0.00,,,-99.99,wx200d/1.3,2013-06-04 11:00:00,
2013-06-04 04:15:00,55.0,45.0,30.33,NNE,26,0.0,0.0,65,0.00,,,-99.99,wx200d/1.3,2013-06-04 11:15:00,
2013-06-04 04:30:00,55.0,45.0,30.33,WSW,244,0.0,0.0,65,0.00,,,-99.99,wx200d/1.3,2013-06-04 11:30:00,
2013-06-04 04:45:00,55.0,43.0,30.33,West,281,0.0,0.0,64,0.00,,,-99.99,wx200d/1.3,2013-06-04 11:45:00,
2013-06-04 05:00:00,55.0,43.0,30.33,West,281,0.0,0.0,64,0.00,,,-99.99,wx200d/1.3,2013-06-04 12:00:00,
2013-06-04 05:15:00,55.0,43.0,30.33,West,281,0.0,0.0,64,0.00,,,-99.99,wx200d/1.3,2013-06-04 12:15:00,
2013-06-04 05:30:00,55.0,45.0,30.33,West,276,0.0,0.0,65,0.00,,,-99.99,wx200d/1.3,2013-06-04 12:30:00,
2013-06-04 05:45:00,55.0,45.0,30.33,WNW,285,0.0,0.0,65,0.00,,,-99.99,wx200d/1.3,2013-06-04 12:45:00,
2013-06-04 06:00:00,55.0,45.0,30.36,WNW,285,0.0,0.0,65,0.00,,,-99.99,wx200d/1.3,2013-06-04 13:00:00,
2013-06-04 06:15:00,55.0,45.0,30.36,SSE,156,0.0,0.0,66,0.00,,,-99.99,wx200d/1.3,2013-06-04 13:15:00,
2013-06-04 06:30:00,54.9,45.0,30.36,East,85,0.0,0.0,66,0.00,,,-99.99,wx200d/1.3,2013-06-04 13:30:00,
2013-06-04 06:45:00,55.2,45.0,30.36,West,260,0.0,0.0,66,0.00,,,-99.99,wx200d/1.3,2013-06-04 13:45:00,
2013-06-04 07:00:00,55.8,43.0,30.36,ENE,76,0.0,0.0,64,0.00,,,-99.99,wx200d/1.3,2013-06-04 14:00:00,
2013-06-04 07:15:00,56.3,43.0,30.36,West,267,0.0,0.0,60,0.00,,,-99.99,wx200d/1.3,2013-06-04 14:15:00,
2013-06-04 07:30:00,56.8,43.0,30.39,NNE,21,0.0,0.0,58,0.00,,,-99.99,wx200d/1.3,2013-06-04 14:30:00,
2013-06-04 07:45:00,57.6,41.0,30.39,West,275,0.0,0.0,53,0.00,,,-99.99,wx200d/1.3,2013-06-04 14:45:00,
2013-06-04 08:00:00,58.6,39.0,30.39,ENE,67,0.0,0.0,47,0.00,,,-99.99,wx200d/1.3,2013-06-04 15:00:00,
2013-06-04 08:15:00,59.4,37.0,30.39,ENE,74,0.0,0.0,45,0.00,,,-99.99,wx200d/1.3,2013-06-04 15:15:00,
2013-06-04 08:30:00,59.0,37.0,30.39,WNW,284,0.0,0.0,45,0.00,,,-99.99,wx200d/1.3,2013-06-04 15:30:00,
2013-06-04 08:45:00,59.2,37.0,30.39,North,353,0.0,0.0,46,0.00,,,-99.99,wx200d/1.3,2013-06-04 15:45:00,
2013-06-04 09:00:00,59.5,37.0,30.39,ENE,64,0.0,0.0,46,0.00,,,-99.99,wx200d/1.3,2013-06-04 16:00:00,
2013-06-04 09:45:00,60.8,36.0,30.42,ESE,104,0.0,0.0,39,0.00,,,-99.99,wx200d/1.3,2013-06-04 16:45:00,
2013-06-04 10:00:00,61.9,37.0,30.39,East,83,2.2,3.6,38,0.00,,,-99.99,wx200d/1.3,2013-06-04 17:00:00,
2013-06-04 10:15:00,65.3,36.0,30.39,WNW,289,2.7,3.6,33,0.00,,,-99.99,wx200d/1.3,2013-06-04 17:15:00,
2013-06-04 10:30:00,66.0,34.0,30.39,West,278,0.0,2.7,30,0.00,,,-99.99,wx200d/1.3,2013-06-04 17:30:00,
2013-06-04 10:45:00,66.7,32.0,30.42,NE,55,0.0,3.1,28,0.00,,,-99.99,wx200d/1.3,2013-06-04 17:45:00,
2013-06-04 11:00:00,67.1,32.0,30.42,ENE,76,2.2,2.2,27,0.00,,,-99.99,wx200d/1.3,2013-06-04 18:00:00,
2013-06-04 11:15:00,67.1,32.0,30.42,North,353,0.0,0.0,27,0.00,,,-99.99,wx200d/1.3,2013-06-04 18:15:00,
2013-06-04 11:30:00,65.3,32.0,30.42,West,268,0.0,0.0,28,0.00,,,-99.99,wx200d/1.3,2013-06-04 18:30:00,
2013-06-04 11:45:00,65.5,32.0,30.42,NE,52,3.1,3.1,28,0.00,,,-99.99,wx200d/1.3,2013-06-04 18:45:00,
2013-06-04 12:00:00,65.1,32.0,30.42,WNW,297,2.2,2.7,28,0.00,,,-99.99,wx200d/1.3,2013-06-04 19:00:00,
2013-06-04 12:15:00,65.5,32.0,30.42,NNE,27,2.2,2.2,28,0.00,,,-99.99,wx200d/1.3,2013-06-04 19:15:00,
2013-06-04 12:30:00,67.3,32.0,30.42,West,276,3.1,3.1,26,0.00,,,-99.99,wx200d/1.3,2013-06-04 19:30:00,
2013-06-04 12:45:00,67.1,32.0,30.42,ESE,111,0.0,4.0,26,0.00,,,-99.99,wx200d/1.3,2013-06-04 19:45:00,
2013-06-04 13:00:00,66.9,32.0,30.42,West,278,2.2,2.7,26,0.00,,,-99.99,wx200d/1.3,2013-06-04 20:00:00,
2013-06-04 13:15:00,67.6,32.0,30.42,WNW,292,3.1,3.1,25,0.00,,,-99.99,wx200d/1.3,2013-06-04 20:15:00,
2013-06-04 13:30:00,69.1,32.0,30.42,NE,38,2.2,0.0,24,0.00,,,-99.99,wx200d/1.3,2013-06-04 20:30:00,
2013-06-04 13:45:00,70.2,32.0,30.42,East,83,3.1,4.9,23,0.00,,,-99.99,wx200d/1.3,2013-06-04 20:45:00,
2013-06-04 14:00:00,70.2,32.0,30.42,West,259,0.0,2.7,23,0.00,,,-99.99,wx200d/1.3,2013-06-04 21:00:00,
2013-06-04 14:15:00,70.3,32.0,30.42,ESE,106,0.0,4.5,23,0.00,,,-99.99,wx200d/1.3,2013-06-04 21:15:00,
2013-06-04 14:30:00,69.8,32.0,30.42,WNW,302,2.2,3.6,23,0.00,,,-99.99,wx200d/1.3,2013-06-04 21:30:00,
2013-06-04 14:45:00,70.0,32.0,30.42,East,88,0.0,5.8,23,0.00,,,-99.99,wx200d/1.3,2013-06-04 21:45:00,
2013-06-04 15:00:00,70.3,32.0,30.42,WNW,298,2.2,3.1,23,0.00,,,-99.99,wx200d/1.3,2013-06-04 22:00:00,
2013-06-04 15:15:00,70.0,32.0,30.42,East,99,0.0,3.6,23,0.00,,,-99.99,wx200d/1.3,2013-06-04 22:15:00,
2013-06-04 15:30:00,67.5,32.0,30.42,West,276,4.5,4.5,24,0.00,,,-99.99,wx200d/1.3,2013-06-04 22:30:00,
2013-06-04 15:45:00,69.1,32.0,30.42,East,82,2.7,5.4,24,0.00,,,-99.99,wx200d/1.3,2013-06-04 22:45:00,
2013-06-04 16:00:00,68.7,32.0,30.39,East,93,2.2,4.9,24,0.00,,,-99.99,wx200d/1.3,2013-06-04 23:00:00,
2013-06-04 16:15:00,69.8,32.0,30.39,ENE,77,2.2,3.1,23,0.00,,,-99.99,wx200d/1.3,2013-06-04 23:15:00,
2013-06-04 16:30:00,69.8,32.0,30.39,East,93,2.7,3.6,23,0.00,,,-99.99,wx200d/1.3,2013-06-04 23:30:00,
2013-06-04 16:45:00,69.4,32.0,30.39,East,87,0.0,0.0,23,0.00,,,-99.99,wx200d/1.3,2013-06-04 23:45:00,
2013-06-04 17:00:00,69.6,32.0,30.39,ENE,76,2.2,2.2,23,0.00,,,-99.99,wx200d/1.3,2013-06-05 00:00:00,
2013-06-04 17:15:00,68.7,32.0,30.39,ENE,69,2.7,2.7,23,0.00,,,-99.99,wx200d/1.3,2013-06-05 00:15:00,
2013-06-04 17:30:00,67.5,32.0,30.39,WSW,258,0.0,0.0,24,0.00,,,-99.99,wx200d/1.3,2013-06-05 00:30:00,
2013-06-04 17:45:00,68.7,32.0,30.39,ENE,75,0.0,0.0,23,0.00,,,-99.99,wx200d/1.3,2013-06-05 00:45:00,
2013-06-04 18:00:00,73.2,32.0,30.39,East,92,2.2,3.1,22,0.00,,,-99.99,wx200d/1.3,2013-06-05 01:00:00,
2013-06-04 18:15:00,73.0,32.0,30.39,East,79,0.0,3.1,22,0.00,,,-99.99,wx200d/1.3,2013-06-05 01:15:00,
2013-06-04 18:30:00,74.1,32.0,30.39,ENE,64,0.0,2.7,21,0.00,,,-99.99,wx200d/1.3,2013-06-05 01:30:00,
2013-06-04 18:45:00,72.0,32.0,30.39,East,97,0.0,0.0,22,0.00,,,-99.99,wx200d/1.3,2013-06-05 01:45:00,
2013-06-04 19:00:00,68.0,32.0,30.39,West,274,4.9,4.9,23,0.00,,,-99.99,wx200d/1.3,2013-06-05 02:00:00,
2013-06-04 19:15:00,66.7,32.0,30.39,SSE,168,2.2,0.0,23,0.00,,,-99.99,wx200d/1.3,2013-06-05 02:15:00,
2013-06-04 19:30:00,63.1,32.0,30.39,ESE,120,3.6,3.6,26,0.00,,,-99.99,wx200d/1.3,2013-06-05 02:30:00,
2013-06-04 19:45:00,61.0,32.0,30.39,ENE,72,2.2,3.1,32,0.00,,,-99.99,wx200d/1.3,2013-06-05 02:45:00,
2013-06-04 20:00:00,59.5,32.0,30.39,SW,215,0.0,0.0,35,0.00,,,-99.99,wx200d/1.3,2013-06-05 03:00:00,
2013-06-04 20:15:00,58.8,32.0,30.39,West,262,2.2,2.2,37,0.00,,,-99.99,wx200d/1.3,2013-06-05 03:15:00,
2013-06-04 20:30:00,57.9,34.0,30.39,ENE,77,2.7,3.6,41,0.00,,,-99.99,wx200d/1.3,2013-06-05 03:30:00,
2013-06-04 20:45:00,57.7,34.0,30.39,WSW,248,0.0,0.0,42,0.00,,,-99.99,wx200d/1.3,2013-06-05 03:45:00,
2013-06-04 21:00:00,57.6,36.0,30.39,West,265,0.0,0.0,45,0.00,,,-99.99,wx200d/1.3,2013-06-05 04:00:00,
2013-06-04 21:15:00,56.8,37.0,30.39,ESE,107,0.0,2.2,46,0.00,,,-99.99,wx200d/1.3,2013-06-05 04:15:00,
2013-06-04 21:30:00,56.3,37.0,30.42,West,265,0.0,0.0,49,0.00,,,-99.99,wx200d/1.3,2013-06-05 04:30:00,
2013-06-04 21:45:00,56.3,39.0,30.42,WSW,256,0.0,0.0,50,0.00,,,-99.99,wx200d/1.3,2013-06-05 04:45:00,
2013-06-04 22:00:00,55.9,37.0,30.42,West,266,0.0,0.0,52,0.00,,,-99.99,wx200d/1.3,2013-06-05 05:00:00,
2013-06-04 22:15:00,55.6,39.0,30.42,West,274,0.0,0.0,54,0.00,,,-99.99,wx200d/1.3,2013-06-05 05:15:00,
2013-06-04 22:30:00,55.2,39.0,30.42,ESE,109,2.2,2.7,56,0.00,,,-99.99,wx200d/1.3,2013-06-05 05:30:00,
2013-06-04 22:45:00,55.4,39.0,30.42,West,280,0.0,0.0,56,0.00,,,-99.99,wx200d/1.3,2013-06-05 05:45:00,
2013-06-04 23:00:00,55.6,39.0,30.42,ENE,74,0.0,3.6,56,0.00,,,-99.99,wx200d/1.3,2013-06-05 06:00:00,
2013-06-04 23:15:00,55.8,39.0,30.42,West,274,0.0,2.7,55,0.00,,,-99.99,wx200d/1.3,2013-06-05 06:15:00,
2013-06-04 23:30:00,55.9,39.0,30.42,ENE,63,0.0,0.0,54,0.00,,,-99.99,wx200d/1.3,2013-06-05 06:30:00,
2013-06-04 23:45:00,55.9,39.0,30.42,West,262,0.0,0.0,54,0.00,,,-99.99,wx200d/1.3,2013-06-05 06:45:00,